Terminal Aerodrome Forecast
Issued by NWS Memphis, TN

Home | Current Version | Previous Version | Text Only | Print | Product List | Glossary On
Versions: 1 2 3 4 5 6 7 8 9 10 11 12 13 14 15 16 17 18 19 20 21 22 23 24 25 26 27
000
FTUS44 KMEG 130900 AAA
TAFMEM
TAF AMD
KMEM 130902Z 1309/1406 20003KT P6SM SCT250
     FM131600 22008KT P6SM FEW045
     FM140100 20007KT P6SM SCT250=

USA.gov is the U.S. government's official web portal to all federal, state and local government web resources and services.